Location: Foligno
(42.9600°N, 12.7050°E)
Time: 23:44:46
(UTC+01:00)

ISS - Pass Details

Date: 09 November 2018
Orbit: 402 x 409 km, 51.6° (Epoch: 14 November)

Event Time Altitude Azimuth Distance (km) Brightness Sun altitude
Exits shadow 05:15:40 21° 353° (N) 965 -2.1 -18.1°
Maximum altitude 05:16:26 23° 15° (NNE) 905 -2.0 -18.0°
Drops below altitude 10° 05:19:09 10° 71° (ENE) 1,463 0.0 -17.5°
Sets 05:21:31 0° 87° (E) 2,323 1.7 -17.1°
